SCP
0 0 0 0 0 0 0 0 0 0 0 0 0 0 0 0 0 0 0 0 0 0 0 0 0 0 0 0 0 0 0 0 0 0 0 0 0 0 0 0 0 0 0
0 0 0 0 0 0 0 0 0 0 0 0 0 0 0 0 0 0 0 0 0 0 0 0 0 0 0 0 0 0 0 0 0 0 0 0 0 0 0 0 0 0 0
0 0 0 0 0 0 0 0 0 0 0 0 0 0 0 0 0 0 0 0 0 0 0 0 0 0 0 0 0 0 0 0 0 0 0 0 0 0 0 0 0 0 0
0 0 0 0 0 0 0 0 0 0 0 0 0 0 0 0 0 0 0 0 0 0 0 0 0 0 0 0 0 0 0 0 0 0 0 0 0 0 0 0 0 0 0
0 0 0 0 0 0 0 0 0 0 0 0 0 0 0 0 0 0 0 0 0 0 0 0 0 0 0 0 0 0 0 0 0 0 0 0 0 0 0 0 0 0 0
0 0 0 0 0 0 0 0 0 0 0 0 0 0 0 0 0 0 0 0 0 0 0 0 0 0 0 0 0 0 0 0 0 0 0 0 0 0 0 0 0 0 0
0 0 0 0 0 0 0 0 0 0 0 0 0 0 0 0 0 0 0 0 0 0 0 0 0 0 0 0 0 0 0 0 0 0 0 0 0 0 0 0 0 0 0
0 0 0 0 0 0 0 0 0 0 0 0 0 0 0 0 0 0 0 0 0 0 0 0 0 0 0 0 0 0 0 0 0 0 0 0 0 0 0 0 0 0 0
0 0 0 0 0 0 0 0 0 0 0 0 0 0 0 0 0 0 0 0 0 0 0 0 0 0 0 0 0 0 0 0 0 0 0 0 0 0 0 0 0 0 0
0 0 0 0 0 0 0 0 0 0 0 0 0 0 0 0 0 0 0 0 0 0 0 0 0 0 0 0 0 0 0 0 0 0 0 0 0 0 0 0 0 0 0
-0 0 0 0 0 0 0 0 0 0 0 0 0 0 0 0 0 0 0 0 0 0 0 0 0 0 0 0 0 0 0 0 0 0 0 0 0 0 0 0 0 0 0
0 0 0 0 0 0 0 0 0 0 0 0 0 0 0 0 0 0 0 0 0 0 0 0 0 0 0 0 0 0 0 0 0 0 0 0 0 0 0 0 0 0 0
0 0 0 0 0 0 0 0 0 0 0 0 0 0 0 0 0 0 0 0 0 0 0 0 0 0 0 0 0 0 0 0 0 0 0 0 0 0 0 0 0 0 0
0 0 0 0 0 0 0 0 0 0 0 0 0 0 0 0 0 0 0 0 0 0 0 0 0 0 0 0 0 0 0 0 0 0 0 0 0 0 0 0 0 0 0
0 0 0 0 0 0 0 0 0 0 0 0 0 0 0 0 0 0 0 0 0 0 0 0 0 0 0 0 0 0 0 0 0 0 0 0 0 0 0 0 0 0 0
0 0 0 0 0 0 0 0 0 0 0 0 0 0 0 0 0 0 0 0 0 0 0 0 0 0 0 0 0 0 0 0 0 0 0 0 0 0 0 0 0 0 0
0 0 0 0 0 0 0 0 0 0 0 0 0 0 0 0 0 0 0 0 0 0 0 0 0 0 0 0 0 0 0 0 0 0 0 0 0 0 0 0 0 0 0
0 0 0 0 0 0 0 0 0 0 0 0 0 0 0 0 0 0 0 0 0 0 0 0 0 0 0 0 0 0 0 0 0 0 0 0 0 0 0 0 0 0 0
0 0 0 0 0 0 0 0 0 0 0 0 0 0 0 0 0 0 0 0 0 0 0 0 0 0 0 0 0 0 0 0 0 0 0 0 0 0 0 0 0 0 0
0 0 0 0 0 0 0 0 0 0 0 0 0 0 0 0 0 0 0 0 0 0 0 0 0 0 0 0 0 0 0 0 0 0 0 0 0 0 0 0 0 0 0
0 0 0 0 0 0 0 0 0 0 0 0 0 0 0 0 0 0 0 0 0 0 0 0 0 0 0 0 0 0 0 0 0 0 0 0 0 0 0 0 0 0 0
0 0 0 0 0 0 0 0 0 0 0 0 0 0 0 0 0 0 0 0 0 0 0 0 0 0 0 0 0 0 0 0 0 0 0 0 0 0 0 0 0 0 0
0 0 0 0 0 0 0 0 0 0 0 0 0 0 0 0 0 0 0 0 0 0 0 0 0 0 0 0 0 0 0 0 0 0 0 0 0 0 0 0 0 0 0
0 0 0 0 0 0 0 0 0 0 0 0 0 0 0 0 0 0 0 0 0 0 0 0 0 0 0 0 0 0 0 0 0 0 0 0 0 0 0 0 0 0 0
0 0 0 0 0 0 0 0 0 0 0 0 0 0 0 0 0 0 0 0 0 0 0 0 0 0 0 0 0 0 0 0 0 0 0 0 0 0 0 0 0 0 0
0 0 0 0 0 0 0 0 0 0 0 0 0 0 0 0 0 0 0 0 0 0 0 0 0 0 0 0 0 0 0 0 0 0 0 0 0 0 0 0 0 0 0
Wind_Speed_500mb
8 5 5 8 14 18 22 25 32 40 44 48 50 53 57 59 61 67 75 80 85 85 90 94 93 96 94 87 89 94 93 89 96 88 83 73 64 62 69 80 70 67 63
10 14 17 21 27 30 34 39 42 46 49 52 58 60 60 59 60 63 69 73 76 80 90 95 90 85 90 91 91 92 90 89 84 87 87 75 64 62 66 78 82 61 60
18 22 27 34 38 39 44 49 52 55 59 62 61 61 66 65 62 62 65 66 69 68 70 77 83 88 87 91 87 94 89 88 83 85 84 74 65 59 60 61 60 62 59
27 31 36 43 46 50 53 55 59 64 69 69 67 66 69 68 65 63 64 68 69 68 68 72 74 77 83 89 90 86 87 83 80 76 80 73 66 59 54 51 66 64 59
30 33 37 43 49 54 59 64 67 70 73 74 76 76 71 69 66 65 66 68 70 68 67 72 72 73 78 80 80 81 80 78 76 74 79 73 64 62 63 67 71 69 67
30 34 39 44 48 53 57 61 62 63 63 67 71 71 68 67 63 64 67 68 68 66 69 68 69 72 72 73 76 77 74 72 72 76 81 76 69 58 59 55 73 73 67
42 43 45 48 51 53 58 62 63 62 63 64 64 65 66 64 61 62 63 67 67 67 68 68 69 70 68 69 70 68 63 63 65 69 81 75 64 60 57 74 78 77 68
48 49 50 53 55 55 57 59 62 65 67 65 64 63 65 63 60 60 60 65 66 66 67 68 69 67 64 63 62 62 62 60 58 60 55 58 52 56 63 52 53 59 51
51 52 52 54 58 59 60 60 59 62 62 64 66 65 66 64 58 57 56 62 64 65 66 68 66 65 61 58 57 58 56 58 53 52 47 42 42 46 50 55 54 50 49
52 54 55 56 60 61 63 66 64 60 62 63 65 64 64 66 60 58 52 62 65 65 65 66 65 63 56 55 56 58 61 63 63 53 52 47 43 46 48 49 45 48 52
54 56 57 57 58 59 62 60 66 70 67 62 62 64 64 62 60 54 52 63 64 63 64 64 61 59 51 50 51 57 60 62 60 59 49 50 54 51 46 41 42 41 40
52 55 58 59 58 58 59 59 59 61 65 70 69 66 60 59 56 52 54 59 66 64 63 58 52 46 42 45 47 48 57 58 65 58 54 51 49 44 39 41 40 39 38
56 59 61 60 59 60 62 60 60 58 60 61 62 66 70 57 51 55 56 57 64 60 57 48 38 34 40 44 46 53 59 62 70 58 51 45 38 35 38 40 41 41 38
61 61 64 65 64 61 61 60 59 59 60 61 61 60 59 52 46 47 52 48 53 53 46 35 28 31 44 50 46 52 60 58 58 55 47 38 39 40 42 40 41 40 41
70 70 68 65 64 66 62 58 58 53 51 56 55 53 53 53 45 42 40 39 46 49 34 25 24 32 48 53 50 52 58 50 50 52 45 42 39 38 36 37 42 43 46
71 70 68 63 59 58 60 61 45 47 37 39 40 39 37 39 35 30 26 23 31 34 31 28 28 36 52 60 58 60 54 45 49 43 39 36 33 33 35 41 43 47 45
70 68 65 61 56 55 51 49 47 28 28 27 26 23 24 24 22 19 17 16 16 26 27 25 31 35 52 53 54 55 55 50 41 37 35 33 31 36 36 43 46 48 48
64 60 58 58 52 46 39 36 31 26 23 21 18 19 19 16 14 13 11 21 17 19 18 17 25 37 35 44 50 51 44 38 39 38 37 37 37 44 43 48 50 52 52
56 56 53 49 41 34 31 27 21 20 19 19 17 15 17 18 17 9 9 15 22 21 24 22 17 23 31 35 39 42 45 45 45 44 45 45 43 47 50 52 54 55 55
49 49 48 41 32 28 25 22 16 13 11 12 15 17 16 12 4 4 10 19 18 21 21 20 21 17 16 20 20 26 36 43 45 44 47 49 49 53 57 57 58 57 57
43 40 36 29 26 24 22 21 16 12 12 15 21 25 22 15 11 10 13 17 24 25 28 28 25 27 31 31 28 27 29 32 36 40 44 48 50 54 54 54 55 55 55
38 32 26 23 21 23 24 21 19 17 17 18 20 22 20 17 15 15 16 18 20 24 28 29 29 29 31 33 35 37 41 43 44 46 48 49 48 47 47 49 50 51 51
29 25 23 23 22 21 21 20 21 20 20 21 22 23 22 19 17 19 19 22 25 24 24 26 28 30 33 36 38 39 41 43 43 44 45 46 46 46 46 47 47 49 50
22 19 17 17 18 19 20 20 20 19 19 19 20 20 17 15 17 20 22 23 24 25 27 29 31 34 36 37 38 40 43 45 46 48 49 50 50 51 51 52 51 49 47
17 16 14 12 11 11 12 14 13 14 15 15 14 15 15 15 16 18 20 23 26 28 30 32 33 36 39 41 43 44 46 46 46 48 50 51 51 51 50 49 48 47 46
14 12 10 9 7 8 8 9 10 9 9 9 11 13 15 18 21 23 25 28 31 33 35 37 39 41 43 45 45 46 46 46 46 48 50 50 49 48 47 46 45 44 42
Wind_Direction_500mb
138 176 228 263 274 278 285 286 287 287 288 287 285 278 272 269 264 261 262 265 266 267 264 262 264 265 269 268 271 271 268 264 260 262 267 265 252 245 229 220 220 223 227
303 293 288 285 284 288 290 289 287 287 287 287 282 281 280 275 271 266 265 265 266 266 262 262 262 264 263 264 268 273 267 266 263 264 262 255 243 240 231 221 216 212 221
297 282 280 285 292 292 291 288 288 289 290 287 286 287 285 279 275 272 269 267 267 268 266 263 264 267 265 267 268 269 266 265 260 258 252 244 238 230 220 216 209 212 216
299 292 287 291 291 295 296 294 291 290 289 288 287 287 283 278 273 271 271 270 269 267 264 265 266 266 266 267 269 268 268 266 260 251 242 244 239 224 209 204 203 210 214
306 300 294 292 293 295 295 293 291 288 287 286 283 281 279 274 272 273 273 272 270 269 264 263 264 268 269 266 265 265 266 262 256 247 236 232 218 210 207 198 202 207 212
324 317 311 305 301 300 298 297 295 294 292 286 282 280 278 274 274 272 272 270 269 267 266 265 265 266 266 267 268 267 263 258 252 241 231 223 221 213 204 199 202 203 212
321 319 316 313 311 308 305 303 302 298 292 288 285 282 279 278 276 274 272 271 267 264 263 264 265 266 267 266 265 263 257 254 251 250 238 225 214 211 195 195 203 215 221
319 317 314 311 309 308 306 305 302 299 296 292 287 284 281 278 275 273 271 268 265 263 263 265 266 265 263 262 258 253 248 244 237 233 235 225 211 196 203 213 212 216 224
319 320 320 317 314 311 307 304 303 299 297 296 292 286 281 279 275 272 269 267 264 264 264 265 265 263 260 254 249 244 239 231 218 203 195 198 205 207 206 209 212 210 214
320 322 321 320 318 318 315 309 304 299 298 296 292 289 284 280 275 272 267 266 265 266 268 267 266 262 255 248 244 239 228 210 202 193 198 205 214 214 212 214 214 208 210
321 323 323 323 321 318 314 313 311 307 301 296 294 293 289 285 282 275 265 264 266 268 268 267 267 263 251 242 240 231 223 209 198 192 196 201 200 200 199 203 206 211 218
319 320 320 319 318 317 315 311 306 305 306 304 301 295 291 290 286 277 268 265 267 263 265 268 268 259 238 231 229 216 206 204 195 193 199 198 195 194 205 208 211 215 222
313 313 313 313 315 315 312 310 307 305 304 304 303 300 297 295 287 278 270 266 262 260 263 267 266 245 227 220 218 206 205 203 196 201 198 196 203 212 214 213 216 221 226
306 307 308 307 305 306 306 305 302 301 300 298 298 298 298 294 287 281 276 267 250 254 256 262 238 222 216 209 210 202 198 204 206 209 203 207 210 211 213 221 227 230 229
302 304 304 303 303 303 304 305 303 301 298 297 297 295 295 293 289 283 278 267 249 251 258 262 221 203 204 204 202 203 201 207 216 209 210 210 213 213 223 231 236 234 236
295 298 301 302 300 299 301 302 302 302 300 296 296 295 296 296 291 284 272 249 250 247 252 254 225 208 196 200 204 203 213 217 202 205 210 216 219 229 238 237 238 239 247
295 297 300 302 302 300 299 300 304 302 299 300 301 300 306 309 302 292 255 236 244 244 259 251 226 216 207 209 216 220 212 204 211 219 223 224 238 236 245 242 243 246 252
294 297 301 302 301 297 293 295 295 298 300 299 302 310 309 319 319 314 258 214 224 240 258 246 225 216 221 224 223 225 222 226 238 241 244 240 247 242 251 248 248 253 257
292 294 295 294 293 287 286 287 286 289 290 295 302 302 293 306 316 329 194 208 225 232 247 261 255 233 228 232 233 239 246 248 245 254 255 246 253 251 257 256 254 256 258
291 293 293 291 283 273 276 274 272 273 275 294 310 309 310 321 319 265 220 218 246 263 265 267 260 251 242 240 250 250 249 247 248 247 252 258 257 257 259 256 256 258 259
294 295 289 276 267 268 264 253 253 262 280 296 316 320 320 309 291 278 255 248 246 247 250 255 254 256 257 253 254 256 255 257 257 258 259 259 259 259 258 258 258 258 258
296 296 283 266 263 260 253 250 252 256 267 285 299 307 307 296 271 265 263 259 254 252 249 250 249 247 248 248 251 254 254 256 257 259 264 265 264 263 261 259 257 257 256
295 290 280 264 255 253 251 247 249 254 266 279 290 299 299 293 267 259 260 254 252 253 254 253 252 256 258 260 262 264 265 265 267 269 268 267 265 264 264 263 262 261 261
298 291 279 264 253 248 246 246 248 256 266 276 284 286 282 275 269 265 264 266 267 265 263 264 265 267 267 267 269 270 270 270 270 270 270 270 269 268 266 264 264 265 264
299 292 284 271 255 240 237 241 250 256 264 269 276 282 285 285 281 277 276 276 275 275 275 275 274 274 274 274 273 273 272 271 271 270 269 268 266 266 266 266 265 263 259
306 298 288 277 264 255 252 255 258 264 274 281 285 286 288 290 290 288 286 284 283 282 282 283 283 283 282 280 279 277 276 276 274 273 271 270 269 268 267 264 262 260 258
Wind_Speed_850mb
8 5 5 8 14 18 22 25 32 40 44 48 50 53 57 59 61 67 75 80 85 85 90 94 93 96 94 87 89 94 93 89 96 88 83 73 64 62 69 80 70 67 63
10 14 17 21 27 30 34 39 42 46 49 52 58 60 60 59 60 63 69 73 76 80 90 95 90 85 90 91 91 92 90 89 84 87 87 75 64 62 66 78 82 61 60
18 22 27 34 38 39 44 49 52 55 59 62 61 61 66 65 62 62 65 66 69 68 70 77 83 88 87 91 87 94 89 88 83 85 84 74 65 59 60 61 60 62 59
27 31 36 43 46 50 53 55 59 64 69 69 67 66 69 68 65 63 64 68 69 68 68 72 74 77 83 89 90 86 87 83 80 76 80 73 66 59 54 51 66 64 59
30 33 37 43 49 54 59 64 67 70 73 74 76 76 71 69 66 65 66 68 70 68 67 72 72 73 78 80 80 81 80 78 76 74 79 73 64 62 63 67 71 69 67
30 34 39 44 48 53 57 61 62 63 63 67 71 71 68 67 63 64 67 68 68 66 69 68 69 72 72 73 76 77 74 72 72 76 81 76 69 58 59 55 73 73 67
42 43 45 48 51 53 58 62 63 62 63 64 64 65 66 64 61 62 63 67 67 67 68 68 69 70 68 69 70 68 63 63 65 69 81 75 64 60 57 74 78 77 68
48 49 50 53 55 55 57 59 62 65 67 65 64 63 65 63 60 60 60 65 66 66 67 68 69 67 64 63 62 62 62 60 58 60 55 58 52 56 63 52 53 59 51
51 52 52 54 58 59 60 60 59 62 62 64 66 65 66 64 58 57 56 62 64 65 66 68 66 65 61 58 57 58 56 58 53 52 47 42 42 46 50 55 54 50 49
52 54 55 56 60 61 63 66 64 60 62 63 65 64 64 66 60 58 52 62 65 65 65 66 65 63 56 55 56 58 61 63 63 53 52 47 43 46 48 49 45 48 52
54 56 57 57 58 59 62 60 66 70 67 62 62 64 64 62 60 54 52 63 64 63 64 64 61 59 51 50 51 57 60 62 60 59 49 50 54 51 46 41 42 41 40
52 55 58 59 58 58 59 59 59 61 65 70 69 66 60 59 56 52 54 59 66 64 63 58 52 46 42 45 47 48 57 58 65 58 54 51 49 44 39 41 40 39 38
56 59 61 60 59 60 62 60 60 58 60 61 62 66 70 57 51 55 56 57 64 60 57 48 38 34 40 44 46 53 59 62 70 58 51 45 38 35 38 40 41 41 38
61 61 64 65 64 61 61 60 59 59 60 61 61 60 59 52 46 47 52 48 53 53 46 35 28 31 44 50 46 52 60 58 58 55 47 38 39 40 42 40 41 40 41
70 70 68 65 64 66 62 58 58 53 51 56 55 53 53 53 45 42 40 39 46 49 34 25 24 32 48 53 50 52 58 50 50 52 45 42 39 38 36 37 42 43 46
71 70 68 63 59 58 60 61 45 47 37 39 40 39 37 39 35 30 26 23 31 34 31 28 28 36 52 60 58 60 54 45 49 43 39 36 33 33 35 41 43 47 45
70 68 65 61 56 55 51 49 47 28 28 27 26 23 24 24 22 19 17 16 16 26 27 25 31 35 52 53 54 55 55 50 41 37 35 33 31 36 36 43 46 48 48
64 60 58 58 52 46 39 36 31 26 23 21 18 19 19 16 14 13 11 21 17 19 18 17 25 37 35 44 50 51 44 38 39 38 37 37 37 44 43 48 50 52 52
56 56 53 49 41 34 31 27 21 20 19 19 17 15 17 18 17 9 9 15 22 21 24 22 17 23 31 35 39 42 45 45 45 44 45 45 43 47 50 52 54 55 55
49 49 48 41 32 28 25 22 16 13 11 12 15 17 16 12 4 4 10 19 18 21 21 20 21 17 16 20 20 26 36 43 45 44 47 49 49 53 57 57 58 57 57
43 40 36 29 26 24 22 21 16 12 12 15 21 25 22 15 11 10 13 17 24 25 28 28 25 27 31 31 28 27 29 32 36 40 44 48 50 54 54 54 55 55 55
38 32 26 23 21 23 24 21 19 17 17 18 20 22 20 17 15 15 16 18 20 24 28 29 29 29 31 33 35 37 41 43 44 46 48 49 48 47 47 49 50 51 51
29 25 23 23 22 21 21 20 21 20 20 21 22 23 22 19 17 19 19 22 25 24 24 26 28 30 33 36 38 39 41 43 43 44 45 46 46 46 46 47 47 49 50
22 19 17 17 18 19 20 20 20 19 19 19 20 20 17 15 17 20 22 23 24 25 27 29 31 34 36 37 38 40 43 45 46 48 49 50 50 51 51 52 51 49 47
17 16 14 12 11 11 12 14 13 14 15 15 14 15 15 15 16 18 20 23 26 28 30 32 33 36 39 41 43 44 46 46 46 48 50 51 51 51 50 49 48 47 46
14 12 10 9 7 8 8 9 10 9 9 9 11 13 15 18 21 23 25 28 31 33 35 37 39 41 43 45 45 46 46 46 46 48 50 50 49 48 47 46 45 44 42
Wind_Direction_850mb
138 176 228 263 274 278 285 286 287 287 288 287 285 278 272 269 264 261 262 265 266 267 264 262 264 265 269 268 271 271 268 264 260 262 267 265 252 245 229 220 220 223 227
303 293 288 285 284 288 290 289 287 287 287 287 282 281 280 275 271 266 265 265 266 266 262 262 262 264 263 264 268 273 267 266 263 264 262 255 243 240 231 221 216 212 221
297 282 280 285 292 292 291 288 288 289 290 287 286 287 285 279 275 272 269 267 267 268 266 263 264 267 265 267 268 269 266 265 260 258 252 244 238 230 220 216 209 212 216
299 292 287 291 291 295 296 294 291 290 289 288 287 287 283 278 273 271 271 270 269 267 264 265 266 266 266 267 269 268 268 266 260 251 242 244 239 224 209 204 203 210 214
306 300 294 292 293 295 295 293 291 288 287 286 283 281 279 274 272 273 273 272 270 269 264 263 264 268 269 266 265 265 266 262 256 247 236 232 218 210 207 198 202 207 212
324 317 311 305 301 300 298 297 295 294 292 286 282 280 278 274 274 272 272 270 269 267 266 265 265 266 266 267 268 267 263 258 252 241 231 223 221 213 204 199 202 203 212
321 319 316 313 311 308 305 303 302 298 292 288 285 282 279 278 276 274 272 271 267 264 263 264 265 266 267 266 265 263 257 254 251 250 238 225 214 211 195 195 203 215 221
319 317 314 311 309 308 306 305 302 299 296 292 287 284 281 278 275 273 271 268 265 263 263 265 266 265 263 262 258 253 248 244 237 233 235 225 211 196 203 213 212 216 224
319 320 320 317 314 311 307 304 303 299 297 296 292 286 281 279 275 272 269 267 264 264 264 265 265 263 260 254 249 244 239 231 218 203 195 198 205 207 206 209 212 210 214
320 322 321 320 318 318 315 309 304 299 298 296 292 289 284 280 275 272 267 266 265 266 268 267 266 262 255 248 244 239 228 210 202 193 198 205 214 214 212 214 214 208 210
321 323 323 323 321 318 314 313 311 307 301 296 294 293 289 285 282 275 265 264 266 268 268 267 267 263 251 242 240 231 223 209 198 192 196 201 200 200 199 203 206 211 218
319 320 320 319 318 317 315 311 306 305 306 304 301 295 291 290 286 277 268 265 267 263 265 268 268 259 238 231 229 216 206 204 195 193 199 198 195 194 205 208 211 215 222
313 313 313 313 315 315 312 310 307 305 304 304 303 300 297 295 287 278 270 266 262 260 263 267 266 245 227 220 218 206 205 203 196 201 198 196 203 212 214 213 216 221 226
306 307 308 307 305 306 306 305 302 301 300 298 298 298 298 294 287 281 276 267 250 254 256 262 238 222 216 209 210 202 198 204 206 209 203 207 210 211 213 221 227 230 229
302 304 304 303 303 303 304 305 303 301 298 297 297 295 295 293 289 283 278 267 249 251 258 262 221 203 204 204 202 203 201 207 216 209 210 210 213 213 223 231 236 234 236
295 298 301 302 300 299 301 302 302 302 300 296 296 295 296 296 291 284 272 249 250 247 252 254 225 208 196 200 204 203 213 217 202 205 210 216 219 229 238 237 238 239 247
295 297 300 302 302 300 299 300 304 302 299 300 301 300 306 309 302 292 255 236 244 244 259 251 226 216 207 209 216 220 212 204 211 219 223 224 238 236 245 242 243 246 252
294 297 301 302 301 297 293 295 295 298 300 299 302 310 309 319 319 314 258 214 224 240 258 246 225 216 221 224 223 225 222 226 238 241 244 240 247 242 251 248 248 253 257
292 294 295 294 293 287 286 287 286 289 290 295 302 302 293 306 316 329 194 208 225 232 247 261 255 233 228 232 233 239 246 248 245 254 255 246 253 251 257 256 254 256 258
291 293 293 291 283 273 276 274 272 273 275 294 310 309 310 321 319 265 220 218 246 263 265 267 260 251 242 240 250 250 249 247 248 247 252 258 257 257 259 256 256 258 259
294 295 289 276 267 268 264 253 253 262 280 296 316 320 320 309 291 278 255 248 246 247 250 255 254 256 257 253 254 256 255 257 257 258 259 259 259 259 258 258 258 258 258
296 296 283 266 263 260 253 250 252 256 267 285 299 307 307 296 271 265 263 259 254 252 249 250 249 247 248 248 251 254 254 256 257 259 264 265 264 263 261 259 257 257 256
295 290 280 264 255 253 251 247 249 254 266 279 290 299 299 293 267 259 260 254 252 253 254 253 252 256 258 260 262 264 265 265 267 269 268 267 265 264 264 263 262 261 261
298 291 279 264 253 248 246 246 248 256 266 276 284 286 282 275 269 265 264 266 267 265 263 264 265 267 267 267 269 270 270 270 270 270 270 270 269 268 266 264 264 265 264
299 292 284 271 255 240 237 241 250 256 264 269 276 282 285 285 281 277 276 276 275 275 275 275 274 274 274 274 273 273 272 271 271 270 269 268 266 266 266 266 265 263 259
306 298 288 277 264 255 252 255 258 264 274 281 285 286 288 290 290 288 286 284 283 282 282 283 283 283 282 280 279 277 276 276 274 273 271 270 269 268 267 264 262 260 258